Skip Page Navigation
NASA JPL Caltech
NASA Logo - Jet Propulsion Laboratory + View the NASA Portal
+ Center for Near-Earth Object Studies
JPL Home Earth Solar System Stars & Galaxies Technology
JPL Solar System Dynamics
BODIES ORBITS EPHEMERIDES TOOLS PHYSICAL DATA DISCOVERY FAQ SITE MAP
IMPORTANT: The SSD Announcement email list is now available. Major changes are coming in the near future, including possible hostname and/or URL changes. To be notified of such changes, subscribe to this email list.

Please visit this page for more details.


JPL Small-Body Database Browser
Search: [ help ]  
266073 (2006 RN53)
Classification: Main-belt Asteroid          SPK-ID: 2266073
Ephemeris | Orbit Diagram | Orbital Elements | Mission Design | Physical Parameters | Discovery Circumstances ]

[ show orbit diagram ]
Orbital Elements at Epoch 2458600.5 (2019-Apr-27.0) TDB
Reference: JPL 13 (heliocentric ecliptic J2000)
 Element Value Uncertainty (1-sigma)   Units 
e .1783518492546815 8.9545e-08  
a 2.310397389736381 1.3862e-08 au
q 1.898333742763708 2.0856e-07 au
i 4.796622969211608 7.9632e-06 deg
node 22.60498317198842 5.5279e-05 deg
peri 339.8513630547745 5.7419e-05 deg
M 217.8424471688312 1.7262e-05 deg
tp 2459107.019177113299
(2020-Sep-14.51917711)
6.4721e-05 TDB
period 1282.709923807911
3.51
1.1544e-05
3.161e-08
d
yr
n .2806558157212097 2.5258e-09 deg/d
Q 2.722461036709054 1.6334e-08 au
  Orbit Determination Parameters
   # obs. used (total)      198  
   data-arc span      7167 days (19.62 yr)  
   first obs. used      1999-10-12  
   last obs. used      2019-05-27  
   planetary ephem.      DE431  
   SB-pert. ephem.      SB431-N16  
   condition code      0  
   norm. resid. RMS      .62323  
   source      ORB  
   producer      Otto Matic  
   solution date      2019-Sep-24 04:36:12  

Additional Information
 Earth MOID = .89595 au 
 Jupiter MOID = 2.72876 au 
 T_jup = 3.559 
[ show covariance matrix ]

Ephemeris | Orbit Diagram | Orbital Elements | Mission Design | Physical Parameters | Discovery Circumstances ]

Physical Parameter Table
Parameter Symbol Value Units Sigma Reference Notes
absolute magnitude H 17.6   n/a MPO437225  

266073 (2006 RN53)          Discovered 2006-Sep-14 by Spacewatch at Kitt Peak
Reference: 20110218/Numbers.arcLast Updated: 2011-02-22

Alternate Designations
 2006 RN53 = 1999 TQ321 
Ephemeris | Orbit Diagram | Orbital Elements | Mission Design | Physical Parameters | Discovery Circumstances ]
ABOUT SSD CREDITS/AWARDS PRIVACY/COPYRIGHT GLOSSARY LINKS
FirstGov 2019-Dec-14 08:25 UT
(server date/time)  
NASA Home Page
Site Manager:   Ryan S. Park
Webmaster  Alan B. Chamberlin